Wetterdaten: Donnerstag, 31.03.2016
Datum Zeit Auen-Temp. Temp gefhlt Luftfeuchte Luftdruck Regen Wind Richtung Richtung Sonnenschein Taupunkt Windben
31.03.2016 00:00 6,9 C 6,9 C 78 % 1012,7 hPa 0,0 mm 0,0 km/h (0 Bft) NO 45 0 min 3,3 C 0,0 km/h (0 Bft)
31.03.2016 00:05 6,8 C 6,8 C 78 % 1012,7 hPa 0,0 mm 0,0 km/h (0 Bft) N-NW 337 0 min 3,2 C 0,0 km/h (0 Bft)
31.03.2016 00:10 7,1 C 7,0 C 78 % 1012,2 hPa 0,0 mm 0,0 km/h (0 Bft) O 90 0 min 3,5 C 0,0 km/h (0 Bft)
31.03.2016 00:15 6,7 C 6,6 C 77 % 1012,2 hPa 0,0 mm 0,0 km/h (0 Bft) NW 315 0 min 3,0 C 0,0 km/h (0 Bft)
31.03.2016 00:20 7,0 C 6,8 C 78 % 1012,2 hPa 0,0 mm 0,0 km/h (0 Bft) O-NO 67 0 min 3,4 C 0,0 km/h (0 Bft)
31.03.2016 00:25 6,4 C 6,3 C 77 % 1012,2 hPa 0,0 mm 0,6 km/h (0 Bft) S-SO 157 0 min 2,7 C 0,0 km/h (0 Bft)
31.03.2016 00:30 6,7 C 6,4 C 78 % 1012,1 hPa 0,0 mm 0,6 km/h (0 Bft) O-NO 67 0 min 3,1 C 0,0 km/h (0 Bft)
31.03.2016 00:35 6,7 C 6,3 C 78 % 1012,1 hPa 0,0 mm 0,0 km/h (0 Bft) O-SO 112 0 min 3,1 C 0,0 km/h (0 Bft)
31.03.2016 00:40 7,0 C 6,5 C 78 % 1012,1 hPa 0,0 mm 0,9 km/h (0 Bft) SO 135 0 min 3,4 C 3,6 km/h (1 Bft)
31.03.2016 00:45 7,0 C 6,6 C 77 % 1012,1 hPa 0,0 mm 1,8 km/h (1 Bft) O-SO 112 0 min 3,2 C 6,0 km/h (2 Bft)
31.03.2016 00:50 6,9 C 6,6 C 76 % 1011,7 hPa 0,0 mm 1,2 km/h (1 Bft) O 90 0 min 3,0 C 0,0 km/h (0 Bft)
31.03.2016 00:55 6,1 C 6,0 C 75 % 1011,7 hPa 0,0 mm 0,6 km/h (0 Bft) NW 315 0 min 2,0 C 6,3 km/h (2 Bft)
31.03.2016 01:00 5,8 C 5,7 C 76 % 1011,7 hPa 0,0 mm 0,6 km/h (0 Bft) NW 315 0 min 1,9 C 0,0 km/h (0 Bft)
31.03.2016 01:05 5,9 C 5,6 C 78 % 1011,7 hPa 0,0 mm 0,6 km/h (0 Bft) SO 135 0 min 2,4 C 7,7 km/h (2 Bft)
31.03.2016 01:10 6,3 C 5,9 C 78 % 1011,8 hPa 0,0 mm 1,2 km/h (1 Bft) S 180 0 min 2,8 C 0,0 km/h (0 Bft)
31.03.2016 01:15 5,5 C 5,4 C 78 % 1011,8 hPa 0,0 mm 1,8 km/h (1 Bft) W-NW 292 0 min 2,0 C 0,0 km/h (0 Bft)
31.03.2016 01:20 5,5 C 5,2 C 78 % 1011,8 hPa 0,0 mm 1,2 km/h (1 Bft) SW 225 0 min 2,0 C 4,8 km/h (1 Bft)
31.03.2016 01:25 6,1 C 5,8 C 79 % 1011,8 hPa 0,0 mm 2,7 km/h (1 Bft) SW 225 0 min 2,7 C 17,0 km/h (3 Bft)
31.03.2016 01:30 6,4 C 6,0 C 78 % 1011,9 hPa 0,0 mm 4,8 km/h (1 Bft) SW 225 0 min 2,8 C 5,1 km/h (1 Bft)
31.03.2016 01:35 6,8 C 6,5 C 77 % 1011,9 hPa 0,0 mm 5,4 km/h (1 Bft) SW 225 0 min 3,1 C 7,7 km/h (2 Bft)
31.03.2016 01:40 6,8 C 6,5 C 76 % 1011,9 hPa 0,0 mm 4,8 km/h (1 Bft) SW 225 0 min 2,9 C 5,4 km/h (1 Bft)
31.03.2016 01:45 6,7 C 6,5 C 75 % 1011,9 hPa 0,0 mm 4,2 km/h (1 Bft) S-SW 202 0 min 2,6 C 5,7 km/h (1 Bft)
31.03.2016 01:50 6,5 C 6,4 C 75 % 1011,7 hPa 0,0 mm 5,1 km/h (1 Bft) SW 225 0 min 2,4 C 6,9 km/h (2 Bft)
31.03.2016 01:55 6,5 C 6,4 C 75 % 1011,7 hPa 0,0 mm 4,8 km/h (1 Bft) SW 225 0 min 2,4 C 5,4 km/h (1 Bft)
31.03.2016 02:00 6,5 C 6,4 C 75 % 1011,7 hPa 0,0 mm 4,2 km/h (1 Bft) S-SW 202 0 min 2,4 C 8,3 km/h (2 Bft)
31.03.2016 02:05 5,4 C 6,0 C 75 % 1011,7 hPa 0,0 mm 2,7 km/h (1 Bft) NO 45 0 min 1,3 C 0,0 km/h (0 Bft)
31.03.2016 02:10 4,7 C 5,2 C 75 % 1011,6 hPa 0,0 mm 1,2 km/h (1 Bft) NO 45 0 min 0,7 C 0,0 km/h (0 Bft)
31.03.2016 02:15 4,5 C 4,4 C 76 % 1011,6 hPa 0,0 mm 0,0 km/h (0 Bft) O-NO 67 0 min 0,6 C 0,0 km/h (0 Bft)
31.03.2016 02:20 4,5 C 4,2 C 77 % 1011,6 hPa 0,0 mm 0,0 km/h (0 Bft) NW 315 0 min 0,8 C 0,0 km/h (0 Bft)
31.03.2016 02:25 4,2 C 3,9 C 77 % 1011,6 hPa 0,0 mm 0,0 km/h (0 Bft) N 360 0 min 0,5 C 0,0 km/h (0 Bft)
31.03.2016 02:30 3,9 C 3,6 C 77 % 1011,7 hPa 0,0 mm 0,0 km/h (0 Bft) N-NO 22 0 min 0,2 C 0,0 km/h (0 Bft)
31.03.2016 02:35 3,8 C 3,4 C 78 % 1011,7 hPa 0,0 mm 0,0 km/h (0 Bft) SO 135 0 min 0,3 C 0,0 km/h (0 Bft)
31.03.2016 02:40 4,0 C 3,5 C 79 % 1011,7 hPa 0,0 mm 0,0 km/h (0 Bft) S-SO 157 0 min 0,7 C 0,0 km/h (0 Bft)
31.03.2016 02:45 4,3 C 3,8 C 82 % 1011,7 hPa 0,0 mm 0,3 km/h (0 Bft) O-NO 67 0 min 1,5 C 0,0 km/h (0 Bft)
31.03.2016 02:48 4,3 C 3,8 C 83 % 1011,4 hPa 0,0 mm 0,6 km/h (0 Bft) O-SO 112 0 min 1,7 C 3,9 km/h (1 Bft)
31.03.2016 02:50 4,3 C 3,8 C 83 % 1011,4 hPa 0,0 mm 0,6 km/h (0 Bft) O-SO 112 0 min 1,7 C 3,9 km/h (1 Bft)
31.03.2016 02:55 3,4 C 3,2 C 81 % 1011,4 hPa 0,0 mm 0,3 km/h (0 Bft) NO 45 0 min 0,5 C 0,0 km/h (0 Bft)
31.03.2016 03:00 3,3 C 3,1 C 81 % 1011,4 hPa 0,0 mm 0,0 km/h (0 Bft) N-NO 22 0 min 0,4 C 0,0 km/h (0 Bft)
31.03.2016 03:05 2,8 C 2,6 C 81 % 1011,4 hPa 0,0 mm 0,0 km/h (0 Bft) N 360 0 min -0,1 C 0,0 km/h (0 Bft)
31.03.2016 03:10 2,9 C 2,6 C 82 % 1011,4 hPa 0,0 mm 0,0 km/h (0 Bft) N-NO 22 0 min 0,1 C 0,0 km/h (0 Bft)
31.03.2016 03:15 2,9 C 2,6 C 82 % 1011,4 hPa 0,0 mm 0,0 km/h (0 Bft) O-SO 112 0 min 0,1 C 0,0 km/h (0 Bft)
31.03.2016 03:20 3,2 C 2,8 C 82 % 1011,4 hPa 0,0 mm 0,0 km/h (0 Bft) W-NW 292 0 min 0,4 C 0,0 km/h (0 Bft)
31.03.2016 03:25 3,3 C 3,0 C 84 % 1011,4 hPa 0,0 mm 0,6 km/h (0 Bft) N-NO 22 0 min 0,9 C 0,0 km/h (0 Bft)
31.03.2016 03:30 3,3 C 3,0 C 84 % 1011,3 hPa 0,0 mm 0,6 km/h (0 Bft) O-NO 67 0 min 0,9 C 0,0 km/h (0 Bft)
31.03.2016 03:35 3,2 C 3,0 C 84 % 1011,3 hPa 0,0 mm 0,0 km/h (0 Bft) SW 225 0 min 0,8 C 0,0 km/h (0 Bft)
31.03.2016 03:40 3,0 C 2,8 C 84 % 1011,3 hPa 0,0 mm 0,0 km/h (0 Bft) O-SO 112 0 min 0,6 C 0,0 km/h (0 Bft)
31.03.2016 03:45 3,4 C 3,2 C 79 % 1011,3 hPa 0,0 mm 0,0 km/h (0 Bft) S 180 0 min 0,1 C 0,0 km/h (0 Bft)
31.03.2016 03:50 3,5 C 3,5 C 79 % 1011,1 hPa 0,0 mm 0,0 km/h (0 Bft) S 180 0 min 0,2 C 0,0 km/h (0 Bft)
31.03.2016 03:55 3,3 C 3,1 C 85 % 1011,1 hPa 0,0 mm 0,0 km/h (0 Bft) NW 315 0 min 1,0 C 0,0 km/h (0 Bft)
31.03.2016 04:00 3,1 C 3,0 C 84 % 1011,1 hPa 0,0 mm 0,0 km/h (0 Bft) W-SW 247 0 min 0,7 C 0,0 km/h (0 Bft)
31.03.2016 04:05 3,0 C 2,8 C 84 % 1011,1 hPa 0,0 mm 0,0 km/h (0 Bft) W-NW 292 0 min 0,6 C 0,0 km/h (0 Bft)
31.03.2016 04:10 3,2 C 2,9 C 85 % 1011,3 hPa 0,0 mm 0,0 km/h (0 Bft) S 180 0 min 0,9 C 0,0 km/h (0 Bft)
31.03.2016 04:15 3,5 C 3,2 C 85 % 1011,3 hPa 0,0 mm 0,0 km/h (0 Bft) O-SO 112 0 min 1,2 C 0,0 km/h (0 Bft)
31.03.2016 04:20 3,5 C 3,3 C 85 % 1011,3 hPa 0,0 mm 0,0 km/h (0 Bft) N-NW 337 0 min 1,2 C 0,0 km/h (0 Bft)
31.03.2016 04:25 3,2 C 3,1 C 85 % 1011,3 hPa 0,0 mm 0,0 km/h (0 Bft) O-NO 67 0 min 0,9 C 0,0 km/h (0 Bft)
31.03.2016 04:30 3,3 C 3,1 C 85 % 1011,0 hPa 0,0 mm 0,0 km/h (0 Bft) O-NO 67 0 min 1,0 C 0,0 km/h (0 Bft)
31.03.2016 04:35 3,3 C 3,1 C 85 % 1011,0 hPa 0,0 mm 0,0 km/h (0 Bft) O-SO 112 0 min 1,0 C 0,0 km/h (0 Bft)
31.03.2016 04:40 3,7 C 3,3 C 85 % 1011,0 hPa 0,0 mm 0,0 km/h (0 Bft) N-NO 22 0 min 1,4 C 0,0 km/h (0 Bft)
31.03.2016 04:45 3,7 C 3,3 C 85 % 1011,0 hPa 0,0 mm 0,0 km/h (0 Bft) O-SO 112 0 min 1,4 C 0,0 km/h (0 Bft)
31.03.2016 04:50 4,0 C 3,6 C 85 % 1010,9 hPa 0,0 mm 0,0 km/h (0 Bft) O-SO 112 0 min 1,7 C 0,0 km/h (0 Bft)
31.03.2016 04:55 3,8 C 3,6 C 84 % 1010,9 hPa 0,0 mm 1,2 km/h (1 Bft) W-SW 247 0 min 1,4 C 8,9 km/h (2 Bft)
31.03.2016 05:00 3,8 C 3,6 C 84 % 1010,9 hPa 0,0 mm 1,2 km/h (1 Bft) SO 135 0 min 1,4 C 0,0 km/h (0 Bft)
31.03.2016 05:05 3,8 C 3,7 C 84 % 1010,9 hPa 0,0 mm 0,6 km/h (0 Bft) N-NO 22 0 min 1,4 C 0,0 km/h (0 Bft)
31.03.2016 05:10 3,3 C 3,3 C 83 % 1011,1 hPa 0,0 mm 0,3 km/h (0 Bft) NW 315 0 min 0,7 C 0,0 km/h (0 Bft)
31.03.2016 05:15 3,1 C 3,0 C 83 % 1011,1 hPa 0,0 mm 0,3 km/h (0 Bft) S-SO 157 0 min 0,5 C 0,0 km/h (0 Bft)
31.03.2016 05:20 3,7 C 3,4 C 84 % 1011,1 hPa 0,0 mm 0,3 km/h (0 Bft) S 180 0 min 1,3 C 0,0 km/h (0 Bft)
31.03.2016 05:25 3,7 C 3,6 C 83 % 1011,1 hPa 0,0 mm 0,9 km/h (0 Bft) S 180 0 min 1,1 C 0,0 km/h (0 Bft)
31.03.2016 05:30 3,6 C 3,6 C 83 % 1011,2 hPa 0,0 mm 0,6 km/h (0 Bft) W 270 0 min 1,0 C 0,0 km/h (0 Bft)
31.03.2016 05:35 3,3 C 3,3 C 83 % 1011,2 hPa 0,0 mm 0,0 km/h (0 Bft) W-SW 247 0 min 0,7 C 0,0 km/h (0 Bft)
31.03.2016 05:40 4,2 C 4,2 C 79 % 1011,2 hPa 0,0 mm 0,9 km/h (0 Bft) SO 135 0 min 0,9 C 3,9 km/h (1 Bft)
31.03.2016 05:45 4,6 C 4,5 C 80 % 1011,2 hPa 0,0 mm 2,7 km/h (1 Bft) O-SO 112 0 min 1,5 C 0,0 km/h (0 Bft)
31.03.2016 05:48 3,9 C 4,5 C 80 % 1011,0 hPa 0,0 mm 2,7 km/h (1 Bft) O-SO 112 0 min 0,8 C 0,0 km/h (0 Bft)
31.03.2016 05:50 3,9 C 4,5 C 80 % 1011,0 hPa 0,0 mm 2,7 km/h (1 Bft) O-SO 112 0 min 0,8 C 0,0 km/h (0 Bft)
31.03.2016 05:55 4,2 C 4,5 C 80 % 1011,0 hPa 0,0 mm 0,3 km/h (0 Bft) N-NO 22 0 min 1,1 C 0,0 km/h (0 Bft)
31.03.2016 06:00 3,9 C 4,7 C 80 % 1011,0 hPa 0,0 mm 0,6 km/h (0 Bft) W 270 0 min 0,8 C 6,0 km/h (2 Bft)
31.03.2016 06:05 3,3 C 4,1 C 80 % 1011,0 hPa 0,0 mm 0,6 km/h (0 Bft) SO 135 0 min 0,2 C 0,0 km/h (0 Bft)
31.03.2016 06:10 3,9 C 4,1 C 78 % 1011,0 hPa 0,0 mm 0,6 km/h (0 Bft) O 90 0 min 0,4 C 0,0 km/h (0 Bft)
31.03.2016 06:15 4,6 C 4,5 C 79 % 1011,0 hPa 0,0 mm 0,9 km/h (0 Bft) SO 135 0 min 1,3 C 0,0 km/h (0 Bft)
31.03.2016 06:20 4,2 C 4,4 C 78 % 1011,0 hPa 0,0 mm 1,2 km/h (1 Bft) S 180 0 min 0,7 C 0,0 km/h (0 Bft)
31.03.2016 06:25 4,3 C 4,4 C 79 % 1011,0 hPa 0,0 mm 0,6 km/h (0 Bft) O-SO 112 0 min 1,0 C 0,0 km/h (0 Bft)
31.03.2016 06:30 3,8 C 4,6 C 79 % 1010,9 hPa 0,0 mm 1,2 km/h (1 Bft) N-NW 337 0 min 0,5 C 0,0 km/h (0 Bft)
31.03.2016 06:35 3,8 C 4,2 C 77 % 1010,9 hPa 0,0 mm 0,9 km/h (0 Bft) O-NO 67 0 min 0,1 C 0,0 km/h (0 Bft)
31.03.2016 06:40 3,8 C 4,1 C 78 % 1010,9 hPa 0,0 mm 0,0 km/h (0 Bft) O-SO 112 0 min 0,3 C 0,0 km/h (0 Bft)
31.03.2016 06:45 3,8 C 4,4 C 79 % 1010,9 hPa 0,0 mm 0,0 km/h (0 Bft) NW 315 0 min 0,5 C 0,0 km/h (0 Bft)
31.03.2016 06:50 3,8 C 4,2 C 79 % 1010,7 hPa 0,0 mm 0,0 km/h (0 Bft) O-NO 67 0 min 0,5 C 0,0 km/h (0 Bft)
31.03.2016 06:55 3,6 C 4,1 C 79 % 1010,7 hPa 0,0 mm 0,0 km/h (0 Bft) NO 45 0 min 0,3 C 0,0 km/h (0 Bft)
31.03.2016 07:00 3,5 C 3,9 C 79 % 1010,7 hPa 0,0 mm 0,0 km/h (0 Bft) O-SO 112 0 min 0,2 C 0,0 km/h (0 Bft)
31.03.2016 07:05 3,8 C 3,9 C 80 % 1010,7 hPa 0,0 mm 0,0 km/h (0 Bft) O-SO 112 0 min 0,7 C 0,0 km/h (0 Bft)
31.03.2016 07:10 3,9 C 4,4 C 80 % 1010,6 hPa 0,0 mm 0,0 km/h (0 Bft) O-NO 67 0 min 0,8 C 0,0 km/h (0 Bft)
31.03.2016 07:15 3,8 C 5,0 C 80 % 1010,6 hPa 0,0 mm 0,0 km/h (0 Bft) O-NO 67 0 min 0,7 C 0,0 km/h (0 Bft)
31.03.2016 07:20 3,9 C 5,3 C 80 % 1010,6 hPa 0,0 mm 0,0 km/h (0 Bft) O-SO 112 0 min 0,8 C 0,0 km/h (0 Bft)
31.03.2016 07:25 4,4 C 6,0 C 78 % 1010,6 hPa 0,0 mm 0,0 km/h (0 Bft) O-SO 112 0 min 0,9 C 0,0 km/h (0 Bft)
31.03.2016 07:30 4,7 C 6,7 C 78 % 1010,4 hPa 0,0 mm 0,0 km/h (0 Bft) O 90 0 min 1,2 C 0,0 km/h (0 Bft)
31.03.2016 07:35 5,0 C 7,2 C 77 % 1010,4 hPa 0,0 mm 0,0 km/h (0 Bft) O-NO 67 0 min 1,3 C 0,0 km/h (0 Bft)
31.03.2016 07:40 5,2 C 7,5 C 77 % 1010,4 hPa 0,0 mm 0,0 km/h (0 Bft) O-NO 67 0 min 1,5 C 0,0 km/h (0 Bft)
31.03.2016 07:45 5,1 C 7,6 C 78 % 1010,4 hPa 0,0 mm 0,0 km/h (0 Bft) O-NO 67 5 min 1,6 C 0,0 km/h (0 Bft)
31.03.2016 07:50 5,0 C 7,7 C 76 % 1010,5 hPa 0,0 mm 0,0 km/h (0 Bft) O-SO 112 5 min 1,1 C 0,0 km/h (0 Bft)
31.03.2016 07:55 5,6 C 8,3 C 77 % 1010,5 hPa 0,0 mm 0,0 km/h (0 Bft) O-NO 67 0 min 1,9 C 0,0 km/h (0 Bft)
31.03.2016 08:00 6,3 C 8,7 C 76 % 1010,5 hPa 0,0 mm 0,0 km/h (0 Bft) SO 135 0 min 2,4 C 0,0 km/h (0 Bft)
31.03.2016 08:05 6,9 C 9,1 C 75 % 1010,5 hPa 0,0 mm 0,0 km/h (0 Bft) NO 45 0 min 2,8 C 0,0 km/h (0 Bft)
31.03.2016 08:10 7,2 C 9,5 C 74 % 1010,5 hPa 0,0 mm 0,0 km/h (0 Bft) O-NO 67 0 min 2,9 C 0,0 km/h (0 Bft)
31.03.2016 08:15 7,5 C 10,4 C 73 % 1010,5 hPa 0,0 mm 0,0 km/h (0 Bft) W-NW 292 5 min 3,0 C 0,0 km/h (0 Bft)
31.03.2016 08:20 7,5 C 11,0 C 72 % 1010,5 hPa 0,0 mm 0,0 km/h (0 Bft) N-NO 22 5 min 2,8 C 0,0 km/h (0 Bft)
31.03.2016 08:25 7,5 C 11,0 C 72 % 1010,5 hPa 0,0 mm 0,0 km/h (0 Bft) O-SO 112 5 min 2,8 C 0,0 km/h (0 Bft)
31.03.2016 08:30 7,6 C 11,0 C 72 % 1010,6 hPa 0,0 mm 0,0 km/h (0 Bft) NW 315 5 min 2,9 C 0,0 km/h (0 Bft)
31.03.2016 08:35 7,9 C 11,0 C 72 % 1010,6 hPa 0,0 mm 0,0 km/h (0 Bft) NW 315 5 min 3,2 C 0,0 km/h (0 Bft)
31.03.2016 08:40 8,3 C 11,2 C 71 % 1010,6 hPa 0,0 mm 0,0 km/h (0 Bft) O-SO 112 5 min 3,4 C 0,0 km/h (0 Bft)
31.03.2016 08:45 8,9 C 12,0 C 71 % 1010,6 hPa 0,0 mm 0,3 km/h (0 Bft) W-SW 247 0 min 3,9 C 9,2 km/h (2 Bft)
31.03.2016 08:48 9,7 C 12,7 C 70 % 1010,7 hPa 0,0 mm 0,3 km/h (0 Bft) W-NW 292 0 min 4,5 C 0,0 km/h (0 Bft)
31.03.2016 08:51 9,7 C 12,7 C 70 % 1010,7 hPa 0,0 mm 0,3 km/h (0 Bft) W-NW 292 0 min 4,5 C 0,0 km/h (0 Bft)
31.03.2016 08:55 10,4 C 14,5 C 69 % 1010,7 hPa 0,0 mm 0,6 km/h (0 Bft) O-SO 112 4 min 5,0 C 0,0 km/h (0 Bft)
31.03.2016 09:00 11,1 C 16,2 C 69 % 1010,7 hPa 0,0 mm 0,3 km/h (0 Bft) O-NO 67 5 min 5,6 C 0,0 km/h (0 Bft)
31.03.2016 09:05 11,9 C 18,4 C 68 % 1010,7 hPa 0,0 mm 0,6 km/h (0 Bft) NO 45 5 min 6,2 C 0,0 km/h (0 Bft)
31.03.2016 09:10 12,9 C 19,8 C 67 % 1010,6 hPa 0,0 mm 0,6 km/h (0 Bft) O 90 5 min 6,9 C 0,0 km/h (0 Bft)
31.03.2016 09:15 14,1 C 21,5 C 61 % 1010,6 hPa 0,0 mm 0,6 km/h (0 Bft) SO 135 5 min 6,7 C 0,0 km/h (0 Bft)
31.03.2016 09:20 14,5 C 21,9 C 59 % 1010,6 hPa 0,0 mm 2,4 km/h (1 Bft) W-SW 247 5 min 6,6 C 16,4 km/h (3 Bft)
31.03.2016 09:25 15,1 C 22,1 C 57 % 1010,6 hPa 0,0 mm 2,4 km/h (1 Bft) SO 135 5 min 6,6 C 3,0 km/h (1 Bft)
31.03.2016 09:30 15,7 C 23,1 C 55 % 1011,2 hPa 0,0 mm 2,4 km/h (1 Bft) W-NW 292 5 min 6,7 C 0,0 km/h (0 Bft)
31.03.2016 09:35 16,6 C 24,5 C 51 % 1011,2 hPa 0,0 mm 2,1 km/h (1 Bft) NO 45 5 min 6,4 C 7,7 km/h (2 Bft)
31.03.2016 09:40 16,8 C 24,7 C 51 % 1011,2 hPa 0,0 mm 1,8 km/h (1 Bft) W 270 5 min 6,6 C 0,0 km/h (0 Bft)
31.03.2016 09:45 17,0 C 25,0 C 49 % 1011,2 hPa 0,0 mm 1,8 km/h (1 Bft) S-SO 157 5 min 6,2 C 0,0 km/h (0 Bft)
31.03.2016 09:50 17,3 C 25,1 C 48 % 1011,2 hPa 0,0 mm 1,8 km/h (1 Bft) NO 45 5 min 6,2 C 4,8 km/h (1 Bft)
31.03.2016 09:55 17,4 C 24,9 C 47 % 1011,2 hPa 0,0 mm 2,7 km/h (1 Bft) O-NO 67 5 min 6,0 C 5,4 km/h (1 Bft)
31.03.2016 10:00 17,5 C 24,4 C 45 % 1011,2 hPa 0,0 mm 3,3 km/h (1 Bft) O-SO 112 5 min 5,4 C 5,4 km/h (1 Bft)
31.03.2016 10:05 17,8 C 25,0 C 46 % 1011,2 hPa 0,0 mm 2,4 km/h (1 Bft) N-NW 337 5 min 6,0 C 4,2 km/h (1 Bft)
31.03.2016 10:10 18,3 C 25,5 C 46 % 1011,4 hPa 0,0 mm 2,1 km/h (1 Bft) N-NW 337 5 min 6,5 C 3,9 km/h (1 Bft)
31.03.2016 10:15 18,7 C 25,6 C 46 % 1011,4 hPa 0,0 mm 1,8 km/h (1 Bft) O-NO 67 5 min 6,8 C 0,0 km/h (0 Bft)
31.03.2016 10:20 18,7 C 25,5 C 43 % 1011,4 hPa 0,0 mm 2,7 km/h (1 Bft) W 270 5 min 5,9 C 0,0 km/h (0 Bft)
31.03.2016 10:25 18,9 C 25,9 C 43 % 1011,4 hPa 0,0 mm 2,4 km/h (1 Bft) N 360 5 min 6,0 C 0,0 km/h (0 Bft)
31.03.2016 10:30 19,2 C 26,3 C 43 % 1011,6 hPa 0,0 mm 2,1 km/h (1 Bft) W-SW 247 5 min 6,3 C 5,7 km/h (1 Bft)
31.03.2016 10:35 19,5 C 26,4 C 42 % 1011,6 hPa 0,0 mm 3,6 km/h (1 Bft) N-NW 337 5 min 6,2 C 17,9 km/h (3 Bft)
31.03.2016 10:40 19,8 C 26,5 C 42 % 1011,6 hPa 0,0 mm 3,9 km/h (1 Bft) N-NW 337 5 min 6,5 C 8,0 km/h (2 Bft)
31.03.2016 10:45 19,7 C 26,5 C 41 % 1011,6 hPa 0,0 mm 3,9 km/h (1 Bft) O-NO 67 5 min 6,1 C 6,3 km/h (2 Bft)
31.03.2016 10:50 19,8 C 26,3 C 41 % 1011,7 hPa 0,0 mm 4,2 km/h (1 Bft) N-NW 337 5 min 6,2 C 0,0 km/h (0 Bft)
31.03.2016 10:55 20,0 C 26,4 C 40 % 1011,7 hPa 0,0 mm 3,0 km/h (1 Bft) N-NO 22 5 min 6,0 C 3,9 km/h (1 Bft)
31.03.2016 11:00 20,2 C 26,7 C 39 % 1011,7 hPa 0,0 mm 3,0 km/h (1 Bft) W-SW 247 5 min 5,8 C 9,2 km/h (2 Bft)
31.03.2016 11:05 19,7 C 26,2 C 38 % 1011,7 hPa 0,0 mm 6,3 km/h (2 Bft) W 270 5 min 5,0 C 9,2 km/h (2 Bft)
31.03.2016 11:10 20,1 C 25,9 C 39 % 1011,9 hPa 0,0 mm 6,6 km/h (2 Bft) N-NO 22 5 min 5,7 C 6,6 km/h (2 Bft)
31.03.2016 11:15 20,2 C 26,2 C 37 % 1011,9 hPa 0,0 mm 4,8 km/h (1 Bft) NW 315 5 min 5,0 C 8,6 km/h (2 Bft)
31.03.2016 11:20 20,2 C 25,9 C 37 % 1011,9 hPa 0,0 mm 4,5 km/h (1 Bft) W-SW 247 5 min 5,0 C 5,7 km/h (1 Bft)
31.03.2016 11:25 20,5 C 26,0 C 37 % 1011,9 hPa 0,0 mm 4,5 km/h (1 Bft) W-SW 247 5 min 5,3 C 8,3 km/h (2 Bft)
31.03.2016 11:30 20,4 C 25,9 C 37 % 1011,8 hPa 0,0 mm 4,5 km/h (1 Bft) O-NO 67 5 min 5,2 C 8,0 km/h (2 Bft)
31.03.2016 11:35 20,5 C 25,7 C 36 % 1011,8 hPa 0,0 mm 5,4 km/h (1 Bft) N-NO 22 5 min 4,9 C 0,0 km/h (0 Bft)
31.03.2016 11:40 20,8 C 26,1 C 37 % 1011,8 hPa 0,0 mm 3,9 km/h (1 Bft) N-NO 22 5 min 5,6 C 5,4 km/h (1 Bft)
31.03.2016 11:45 21,1 C 26,8 C 36 % 1011,8 hPa 0,0 mm 3,3 km/h (1 Bft) S 180 5 min 5,4 C 9,8 km/h (2 Bft)
31.03.2016 11:50 21,1 C 26,7 C 36 % 1011,4 hPa 0,0 mm 4,5 km/h (1 Bft) O-NO 67 5 min 5,4 C 6,0 km/h (2 Bft)
31.03.2016 11:52 21,1 C 26,7 C 36 % 1011,4 hPa 0,0 mm 4,5 km/h (1 Bft) O-NO 67 2 min 5,4 C 6,0 km/h (2 Bft)
31.03.2016 11:55 20,7 C 26,0 C 34 % 1011,4 hPa 0,0 mm 6,6 km/h (2 Bft) SO 135 3 min 4,3 C 13,1 km/h (3 Bft)
31.03.2016 12:00 20,8 C 25,7 C 35 % 1011,4 hPa 0,0 mm 6,3 km/h (2 Bft) O-NO 67 5 min 4,8 C 8,3 km/h (2 Bft)
31.03.2016 12:05 21,1 C 26,3 C 35 % 1011,4 hPa 0,0 mm 3,6 km/h (1 Bft) O-SO 112 5 min 5,0 C 4,5 km/h (1 Bft)
31.03.2016 12:10 21,0 C 26,3 C 35 % 1011,1 hPa 0,0 mm 3,3 km/h (1 Bft) W-NW 292 5 min 5,0 C 3,3 km/h (1 Bft)
31.03.2016 12:15 21,6 C 26,9 C 35 % 1011,1 hPa 0,0 mm 4,5 km/h (1 Bft) W-NW 292 5 min 5,5 C 4,8 km/h (1 Bft)
31.03.2016 12:20 21,9 C 27,5 C 35 % 1011,1 hPa 0,0 mm 4,5 km/h (1 Bft) S 180 5 min 5,7 C 0,0 km/h (0 Bft)
31.03.2016 12:25 21,9 C 27,7 C 33 % 1011,1 hPa 0,0 mm 6,0 km/h (2 Bft) W-SW 247 5 min 4,9 C 15,5 km/h (3 Bft)
31.03.2016 12:30 21,8 C 27,5 C 33 % 1011,1 hPa 0,0 mm 7,5 km/h (2 Bft) W-SW 247 5 min 4,8 C 12,5 km/h (3 Bft)
31.03.2016 12:35 21,7 C 27,1 C 33 % 1011,1 hPa 0,0 mm 9,2 km/h (2 Bft) W-SW 247 5 min 4,7 C 19,1 km/h (3 Bft)
31.03.2016 12:40 21,7 C 26,7 C 32 % 1011,1 hPa 0,0 mm 8,0 km/h (2 Bft) W-SW 247 5 min 4,3 C 6,9 km/h (2 Bft)
31.03.2016 12:45 22,1 C 26,8 C 32 % 1011,1 hPa 0,0 mm 5,7 km/h (1 Bft) N-NO 22 5 min 4,6 C 12,5 km/h (3 Bft)
31.03.2016 12:50 22,0 C 26,9 C 32 % 1010,8 hPa 0,0 mm 5,7 km/h (1 Bft) W-SW 247 5 min 4,5 C 7,5 km/h (2 Bft)
31.03.2016 12:55 21,9 C 26,0 C 32 % 1010,8 hPa 0,0 mm 7,2 km/h (2 Bft) W 270 5 min 4,5 C 5,7 km/h (1 Bft)
31.03.2016 13:00 21,9 C 25,6 C 32 % 1010,8 hPa 0,0 mm 6,3 km/h (2 Bft) W 270 5 min 4,5 C 3,3 km/h (1 Bft)
31.03.2016 13:05 21,7 C 25,2 C 32 % 1010,8 hPa 0,0 mm 3,3 km/h (1 Bft) NO 45 5 min 4,3 C 5,7 km/h (1 Bft)
31.03.2016 13:10 21,5 C 25,1 C 30 % 1010,6 hPa 0,0 mm 3,6 km/h (1 Bft) O-NO 67 5 min 3,2 C 10,1 km/h (2 Bft)
31.03.2016 13:15 21,5 C 24,9 C 31 % 1010,6 hPa 0,0 mm 6,0 km/h (2 Bft) S 180 0 min 3,7 C 7,7 km/h (2 Bft)
31.03.2016 13:20 21,4 C 24,8 C 31 % 1010,6 hPa 0,0 mm 6,0 km/h (2 Bft) NW 315 0 min 3,6 C 15,5 km/h (3 Bft)
31.03.2016 13:25 21,4 C 24,3 C 31 % 1010,6 hPa 0,0 mm 6,9 km/h (2 Bft) W 270 0 min 3,6 C 11,0 km/h (2 Bft)
31.03.2016 13:30 21,6 C 24,3 C 31 % 1010,4 hPa 0,0 mm 7,5 km/h (2 Bft) NW 315 0 min 3,7 C 7,2 km/h (2 Bft)
31.03.2016 13:35 21,6 C 24,2 C 31 % 1010,4 hPa 0,0 mm 7,7 km/h (2 Bft) N-NW 337 0 min 3,7 C 8,0 km/h (2 Bft)
31.03.2016 13:40 21,6 C 24,2 C 31 % 1010,4 hPa 0,0 mm 8,6 km/h (2 Bft) W-NW 292 0 min 3,7 C 9,5 km/h (2 Bft)
31.03.2016 13:45 22,4 C 25,7 C 31 % 1010,4 hPa 0,0 mm 8,3 km/h (2 Bft) NW 315 0 min 4,4 C 9,5 km/h (2 Bft)
31.03.2016 13:50 22,8 C 26,9 C 31 % 1009,8 hPa 0,0 mm 6,0 km/h (2 Bft) O-NO 67 0 min 4,8 C 3,0 km/h (1 Bft)
31.03.2016 13:55 23,1 C 28,6 C 29 % 1009,8 hPa 0,0 mm 4,2 km/h (1 Bft) N-NW 337 5 min 4,1 C 16,7 km/h (3 Bft)
31.03.2016 14:00 23,2 C 29,1 C 30 % 1009,8 hPa 0,0 mm 5,4 km/h (1 Bft) W-SW 247 5 min 4,7 C 6,0 km/h (2 Bft)
31.03.2016 14:05 23,3 C 29,2 C 28 % 1009,8 hPa 0,0 mm 7,5 km/h (2 Bft) NW 315 5 min 3,8 C 10,1 km/h (2 Bft)
31.03.2016 14:10 23,4 C 29,2 C 28 % 1009,6 hPa 0,0 mm 6,3 km/h (2 Bft) N-NO 22 5 min 3,8 C 5,7 km/h (1 Bft)
31.03.2016 14:15 23,6 C 29,4 C 28 % 1009,6 hPa 0,0 mm 5,7 km/h (1 Bft) NW 315 5 min 4,0 C 8,6 km/h (2 Bft)
31.03.2016 14:20 23,7 C 29,2 C 28 % 1009,6 hPa 0,0 mm 5,4 km/h (1 Bft) W 270 5 min 4,1 C 6,0 km/h (2 Bft)
31.03.2016 14:25 23,7 C 29,0 C 27 % 1009,6 hPa 0,0 mm 7,5 km/h (2 Bft) S-SW 202 5 min 3,6 C 16,1 km/h (3 Bft)
31.03.2016 14:30 23,2 C 28,1 C 25 % 1009,6 hPa 0,0 mm 8,0 km/h (2 Bft) W-SW 247 5 min 2,1 C 13,4 km/h (3 Bft)
31.03.2016 14:35 22,8 C 27,4 C 27 % 1009,6 hPa 0,0 mm 7,2 km/h (2 Bft) W 270 5 min 2,8 C 3,0 km/h (1 Bft)
31.03.2016 14:40 22,6 C 26,6 C 27 % 1009,6 hPa 0,0 mm 6,9 km/h (2 Bft) W-NW 292 5 min 2,7 C 0,0 km/h (0 Bft)
31.03.2016 14:45 22,3 C 25,8 C 27 % 1009,6 hPa 0,0 mm 6,6 km/h (2 Bft) O-NO 67 5 min 2,4 C 0,0 km/h (0 Bft)
31.03.2016 14:50 22,3 C 25,7 C 26 % 1009,4 hPa 0,0 mm 6,0 km/h (2 Bft) NW 315 0 min 1,9 C 5,7 km/h (1 Bft)
31.03.2016 14:53 22,3 C 25,7 C 26 % 1009,4 hPa 0,0 mm 6,0 km/h (2 Bft) NW 315 0 min 1,9 C 5,7 km/h (1 Bft)
31.03.2016 14:55 22,8 C 26,5 C 27 % 1009,4 hPa 0,0 mm 5,4 km/h (1 Bft) W-SW 247 0 min 2,8 C 22,4 km/h (4 Bft)
31.03.2016 15:00 22,7 C 26,6 C 27 % 1009,4 hPa 0,0 mm 8,3 km/h (2 Bft) SO 135 5 min 2,7 C 4,2 km/h (1 Bft)
31.03.2016 15:05 22,4 C 26,5 C 26 % 1009,4 hPa 0,0 mm 10,4 km/h (2 Bft) N-NO 22 5 min 2,0 C 29,2 km/h (5 Bft)
31.03.2016 15:10 22,2 C 25,9 C 25 % 1009,1 hPa 0,0 mm 9,5 km/h (2 Bft) W-SW 247 5 min 1,2 C 7,7 km/h (2 Bft)
31.03.2016 15:15 22,4 C 25,8 C 25 % 1009,1 hPa 0,0 mm 12,5 km/h (3 Bft) W-SW 247 0 min 1,4 C 17,3 km/h (3 Bft)
31.03.2016 15:20 22,6 C 26,0 C 27 % 1009,1 hPa 0,0 mm 10,1 km/h (2 Bft) W-SW 247 0 min 2,7 C 10,4 km/h (2 Bft)
31.03.2016 15:25 22,8 C 26,7 C 27 % 1009,1 hPa 0,0 mm 6,3 km/h (2 Bft) O-SO 112 5 min 2,8 C 3,3 km/h (1 Bft)
31.03.2016 15:30 22,3 C 26,0 C 26 % 1008,9 hPa 0,0 mm 6,9 km/h (2 Bft) SW 225 5 min 1,9 C 11,3 km/h (2 Bft)
31.03.2016 15:35 21,7 C 24,7 C 27 % 1008,9 hPa 0,0 mm 7,5 km/h (2 Bft) W-SW 247 0 min 1,9 C 9,2 km/h (2 Bft)
31.03.2016 15:40 21,6 C 24,2 C 28 % 1008,9 hPa 0,0 mm 6,0 km/h (2 Bft) W-SW 247 0 min 2,3 C 5,7 km/h (1 Bft)
31.03.2016 15:45 21,4 C 23,7 C 29 % 1008,9 hPa 0,0 mm 4,5 km/h (1 Bft) W-NW 292 0 min 2,6 C 0,0 km/h (0 Bft)
31.03.2016 15:50 21,2 C 23,3 C 28 % 1008,5 hPa 0,0 mm 6,6 km/h (2 Bft) W 270 0 min 2,0 C 15,8 km/h (3 Bft)
31.03.2016 15:55 20,8 C 22,7 C 29 % 1008,5 hPa 0,0 mm 9,8 km/h (2 Bft) SW 225 0 min 2,1 C 22,1 km/h (4 Bft)
31.03.2016 16:00 20,7 C 22,3 C 30 % 1008,5 hPa 0,0 mm 8,0 km/h (2 Bft) SO 135 0 min 2,5 C 0,0 km/h (0 Bft)
31.03.2016 16:05 20,5 C 22,0 C 30 % 1008,5 hPa 0,0 mm 3,6 km/h (1 Bft) W-SW 247 0 min 2,3 C 0,0 km/h (0 Bft)
31.03.2016 16:10 20,3 C 21,8 C 30 % 1008,6 hPa 0,0 mm 3,3 km/h (1 Bft) SW 225 0 min 2,2 C 6,9 km/h (2 Bft)
31.03.2016 16:15 20,1 C 21,5 C 31 % 1008,6 hPa 0,0 mm 3,3 km/h (1 Bft) O-NO 67 0 min 2,4 C 0,0 km/h (0 Bft)
31.03.2016 16:20 20,2 C 21,6 C 31 % 1008,6 hPa 0,0 mm 3,3 km/h (1 Bft) O-NO 67 0 min 2,5 C 5,7 km/h (1 Bft)
31.03.2016 16:25 20,2 C 21,7 C 31 % 1008,6 hPa 0,0 mm 3,6 km/h (1 Bft) W-SW 247 0 min 2,5 C 5,4 km/h (1 Bft)
31.03.2016 16:30 20,1 C 21,5 C 31 % 1008,3 hPa 0,0 mm 4,2 km/h (1 Bft) W-NW 292 0 min 2,4 C 3,6 km/h (1 Bft)
31.03.2016 16:35 20,0 C 21,4 C 32 % 1008,3 hPa 0,0 mm 3,3 km/h (1 Bft) NO 45 0 min 2,8 C 5,7 km/h (1 Bft)
31.03.2016 16:40 19,9 C 21,3 C 31 % 1008,3 hPa 0,0 mm 3,9 km/h (1 Bft) SO 135 0 min 2,3 C 18,2 km/h (3 Bft)
31.03.2016 16:45 19,7 C 20,8 C 31 % 1008,3 hPa 0,0 mm 7,7 km/h (2 Bft) S-SW 202 0 min 2,1 C 11,9 km/h (2 Bft)
31.03.2016 16:50 19,7 C 20,7 C 30 % 1008,0 hPa 0,0 mm 9,8 km/h (2 Bft) W 270 0 min 1,6 C 10,7 km/h (2 Bft)
31.03.2016 16:55 19,7 C 20,7 C 31 % 1008,0 hPa 0,0 mm 8,6 km/h (2 Bft) SW 225 0 min 2,1 C 6,6 km/h (2 Bft)
31.03.2016 17:00 19,5 C 20,6 C 31 % 1008,0 hPa 0,0 mm 6,9 km/h (2 Bft) S 180 0 min 1,9 C 7,5 km/h (2 Bft)
31.03.2016 17:05 19,5 C 20,3 C 30 % 1008,0 hPa 0,0 mm 8,9 km/h (2 Bft) W-SW 247 0 min 1,5 C 17,0 km/h (3 Bft)
31.03.2016 17:10 19,4 C 20,1 C 30 % 1007,8 hPa 0,0 mm 11,0 km/h (2 Bft) SW 225 0 min 1,4 C 10,7 km/h (2 Bft)
31.03.2016 17:15 19,5 C 20,1 C 30 % 1007,8 hPa 0,0 mm 11,3 km/h (2 Bft) W-SW 247 0 min 1,5 C 14,3 km/h (3 Bft)
31.03.2016 17:20 19,5 C 20,2 C 30 % 1007,8 hPa 0,0 mm 11,3 km/h (2 Bft) W 270 0 min 1,5 C 13,4 km/h (3 Bft)
31.03.2016 17:25 19,3 C 20,1 C 31 % 1007,8 hPa 0,0 mm 11,0 km/h (2 Bft) SO 135 0 min 1,8 C 4,5 km/h (1 Bft)
31.03.2016 17:30 19,2 C 20,0 C 32 % 1007,8 hPa 0,0 mm 6,9 km/h (2 Bft) O 90 0 min 2,1 C 0,0 km/h (0 Bft)
31.03.2016 17:35 19,0 C 20,0 C 32 % 1007,8 hPa 0,0 mm 1,5 km/h (1 Bft) O-NO 67 0 min 1,9 C 3,6 km/h (1 Bft)
31.03.2016 17:40 18,9 C 19,8 C 32 % 1007,8 hPa 0,0 mm 2,7 km/h (1 Bft) S 180 0 min 1,8 C 6,3 km/h (2 Bft)
31.03.2016 17:45 18,9 C 19,5 C 32 % 1007,8 hPa 0,0 mm 6,9 km/h (2 Bft) W-SW 247 0 min 1,8 C 17,6 km/h (3 Bft)
31.03.2016 17:50 18,7 C 19,4 C 32 % 1007,7 hPa 0,0 mm 8,0 km/h (2 Bft) S 180 0 min 1,7 C 28,3 km/h (4 Bft)
31.03.2016 17:54 18,8 C 19,3 C 32 % 1007,7 hPa 0,0 mm 8,3 km/h (2 Bft) W 270 0 min 1,8 C 15,5 km/h (3 Bft)
31.03.2016 17:55 18,8 C 19,3 C 32 % 1007,7 hPa 0,0 mm 8,3 km/h (2 Bft) W 270 0 min 1,8 C 15,5 km/h (3 Bft)
31.03.2016 18:00 18,8 C 19,2 C 32 % 1007,7 hPa 0,0 mm 9,5 km/h (2 Bft) SW 225 0 min 1,8 C 4,5 km/h (1 Bft)
31.03.2016 18:05 18,7 C 19,2 C 32 % 1007,7 hPa 0,0 mm 9,5 km/h (2 Bft) W 270 0 min 1,7 C 11,3 km/h (2 Bft)
31.03.2016 18:10 18,3 C 19,0 C 32 % 1007,6 hPa 0,0 mm 6,9 km/h (2 Bft) N-NO 22 0 min 1,3 C 0,0 km/h (0 Bft)
31.03.2016 18:15 18,0 C 18,7 C 33 % 1007,6 hPa 0,0 mm 4,5 km/h (1 Bft) SW 225 0 min 1,5 C 10,1 km/h (2 Bft)
31.03.2016 18:20 18,0 C 18,5 C 33 % 1007,6 hPa 0,0 mm 3,6 km/h (1 Bft) NW 315 0 min 1,5 C 3,9 km/h (1 Bft)
31.03.2016 18:25 17,9 C 18,3 C 34 % 1007,6 hPa 0,0 mm 4,8 km/h (1 Bft) S-SO 157 0 min 1,8 C 8,0 km/h (2 Bft)
31.03.2016 18:30 17,9 C 18,3 C 33 % 1007,6 hPa 0,0 mm 5,1 km/h (1 Bft) W-NW 292 0 min 1,4 C 9,2 km/h (2 Bft)
31.03.2016 18:35 17,8 C 18,2 C 33 % 1007,6 hPa 0,0 mm 6,3 km/h (2 Bft) SW 225 0 min 1,3 C 9,8 km/h (2 Bft)
31.03.2016 18:40 17,7 C 18,1 C 34 % 1007,6 hPa 0,0 mm 4,8 km/h (1 Bft) W-SW 247 0 min 1,6 C 11,9 km/h (2 Bft)
31.03.2016 18:45 17,5 C 17,9 C 34 % 1007,6 hPa 0,0 mm 5,1 km/h (1 Bft) N-NO 22 0 min 1,5 C 18,2 km/h (3 Bft)
31.03.2016 18:50 17,8 C 17,9 C 33 % 1007,5 hPa 0,0 mm 7,2 km/h (2 Bft) W-NW 292 0 min 1,3 C 5,4 km/h (1 Bft)
31.03.2016 18:55 17,2 C 17,6 C 34 % 1007,5 hPa 0,0 mm 4,8 km/h (1 Bft) O-NO 67 0 min 1,2 C 29,5 km/h (5 Bft)
31.03.2016 19:00 16,9 C 17,4 C 35 % 1007,5 hPa 0,0 mm 1,2 km/h (1 Bft) O-SO 112 0 min 1,3 C 0,0 km/h (0 Bft)
31.03.2016 19:05 16,7 C 16,9 C 36 % 1007,5 hPa 0,0 mm 0,6 km/h (0 Bft) O-SO 112 0 min 1,6 C 3,3 km/h (1 Bft)
31.03.2016 19:10 16,5 C 16,7 C 36 % 1007,2 hPa 0,0 mm 1,5 km/h (1 Bft) W-SW 247 0 min 1,4 C 4,8 km/h (1 Bft)
31.03.2016 19:15 16,4 C 16,7 C 36 % 1007,2 hPa 0,0 mm 3,6 km/h (1 Bft) O-SO 112 0 min 1,3 C 0,0 km/h (0 Bft)
31.03.2016 19:20 16,1 C 16,4 C 37 % 1007,2 hPa 0,0 mm 2,4 km/h (1 Bft) N-NW 337 0 min 1,4 C 0,0 km/h (0 Bft)
31.03.2016 19:25 15,8 C 16,0 C 38 % 1007,2 hPa 0,0 mm 0,3 km/h (0 Bft) S 180 0 min 1,5 C 0,0 km/h (0 Bft)
31.03.2016 19:30 15,6 C 15,6 C 38 % 1007,1 hPa 0,0 mm 0,3 km/h (0 Bft) O-NO 67 0 min 1,3 C 0,0 km/h (0 Bft)
31.03.2016 19:35 15,5 C 15,4 C 39 % 1007,1 hPa 0,0 mm 0,0 km/h (0 Bft) O-NO 67 0 min 1,6 C 0,0 km/h (0 Bft)
31.03.2016 19:40 15,2 C 15,1 C 39 % 1007,1 hPa 0,0 mm 0,0 km/h (0 Bft) O-SO 112 0 min 1,3 C 0,0 km/h (0 Bft)
31.03.2016 19:45 14,6 C 14,6 C 40 % 1007,1 hPa 0,0 mm 0,0 km/h (0 Bft) SW 225 0 min 1,2 C 0,0 km/h (0 Bft)
31.03.2016 19:50 14,1 C 14,1 C 41 % 1006,7 hPa 0,0 mm 0,0 km/h (0 Bft) NO 45 0 min 1,1 C 0,0 km/h (0 Bft)
31.03.2016 19:55 14,4 C 14,2 C 42 % 1006,7 hPa 0,0 mm 0,6 km/h (0 Bft) O-SO 112 0 min 1,7 C 0,0 km/h (0 Bft)
31.03.2016 20:00 14,5 C 14,3 C 41 % 1006,7 hPa 0,0 mm 0,6 km/h (0 Bft) SO 135 0 min 1,4 C 0,0 km/h (0 Bft)
31.03.2016 20:05 14,2 C 14,0 C 42 % 1006,7 hPa 0,0 mm 0,6 km/h (0 Bft) O 90 0 min 1,5 C 0,0 km/h (0 Bft)
31.03.2016 20:10 14,3 C 14,1 C 42 % 1006,9 hPa 0,0 mm 0,6 km/h (0 Bft) O 90 0 min 1,6 C 0,0 km/h (0 Bft)
31.03.2016 20:15 14,0 C 13,8 C 42 % 1006,9 hPa 0,0 mm 0,0 km/h (0 Bft) O-NO 67 0 min 1,3 C 0,0 km/h (0 Bft)
31.03.2016 20:20 14,1 C 13,8 C 42 % 1006,9 hPa 0,0 mm 0,0 km/h (0 Bft) W-SW 247 0 min 1,4 C 0,0 km/h (0 Bft)
31.03.2016 20:25 13,9 C 13,6 C 43 % 1006,9 hPa 0,0 mm 0,6 km/h (0 Bft) O-SO 112 0 min 1,5 C 0,0 km/h (0 Bft)
31.03.2016 20:30 14,0 C 13,7 C 43 % 1006,8 hPa 0,0 mm 0,9 km/h (0 Bft) NO 45 0 min 1,6 C 0,0 km/h (0 Bft)
31.03.2016 20:35 14,2 C 13,8 C 43 % 1006,8 hPa 0,0 mm 0,3 km/h (0 Bft) O-SO 112 0 min 1,8 C 0,0 km/h (0 Bft)
31.03.2016 20:40 13,7 C 13,5 C 43 % 1006,8 hPa 0,0 mm 0,0 km/h (0 Bft) W 270 0 min 1,4 C 0,0 km/h (0 Bft)
31.03.2016 20:45 13,7 C 13,5 C 44 % 1006,8 hPa 0,0 mm 0,6 km/h (0 Bft) S-SW 202 0 min 1,7 C 3,0 km/h (1 Bft)
31.03.2016 20:50 13,3 C 13,2 C 44 % 1006,8 hPa 0,0 mm 1,2 km/h (1 Bft) SO 135 0 min 1,3 C 3,0 km/h (1 Bft)
31.03.2016 20:53 12,8 C 12,9 C 45 % 1006,8 hPa 0,0 mm 0,9 km/h (0 Bft) NW 315 0 min 1,2 C 0,0 km/h (0 Bft)
31.03.2016 20:54 12,8 C 12,9 C 45 % 1006,8 hPa 0,0 mm 0,9 km/h (0 Bft) NW 315 0 min 1,2 C 0,0 km/h (0 Bft)
31.03.2016 21:00 12,2 C 12,6 C 46 % 1006,8 hPa 0,0 mm 0,9 km/h (0 Bft) W-NW 292 0 min 0,9 C 0,0 km/h (0 Bft)
31.03.2016 21:05 11,8 C 11,8 C 48 % 1006,8 hPa 0,0 mm 0,6 km/h (0 Bft) SO 135 0 min 1,2 C 3,3 km/h (1 Bft)
31.03.2016 21:10 11,7 C 11,7 C 48 % 1007,0 hPa 0,0 mm 0,3 km/h (0 Bft) SO 135 0 min 1,1 C 0,0 km/h (0 Bft)
31.03.2016 21:15 11,2 C 11,3 C 49 % 1007,0 hPa 0,0 mm 0,0 km/h (0 Bft) O-NO 67 0 min 0,9 C 0,0 km/h (0 Bft)
31.03.2016 21:20 11,0 C 11,0 C 49 % 1007,0 hPa 0,0 mm 0,0 km/h (0 Bft) O 90 0 min 0,7 C 0,0 km/h (0 Bft)
31.03.2016 21:25 11,1 C 11,0 C 51 % 1007,0 hPa 0,0 mm 0,3 km/h (0 Bft) S-SW 202 0 min 1,4 C 0,0 km/h (0 Bft)
31.03.2016 21:30 11,8 C 11,6 C 51 % 1006,9 hPa 0,0 mm 0,3 km/h (0 Bft) SO 135 0 min 2,0 C 3,6 km/h (1 Bft)
31.03.2016 21:35 11,9 C 11,7 C 51 % 1006,9 hPa 0,0 mm 0,3 km/h (0 Bft) S-SO 157 0 min 2,1 C 0,0 km/h (0 Bft)
31.03.2016 21:40 12,3 C 12,0 C 49 % 1006,9 hPa 0,0 mm 0,6 km/h (0 Bft) W 270 0 min 1,9 C 3,9 km/h (1 Bft)
31.03.2016 21:45 11,9 C 11,8 C 49 % 1006,9 hPa 0,0 mm 0,9 km/h (0 Bft) N-NO 22 0 min 1,5 C 0,0 km/h (0 Bft)
31.03.2016 21:50 11,5 C 11,6 C 49 % 1007,0 hPa 0,0 mm 0,9 km/h (0 Bft) O-SO 112 0 min 1,2 C 0,0 km/h (0 Bft)
31.03.2016 21:55 11,4 C 11,4 C 50 % 1007,0 hPa 0,0 mm 0,9 km/h (0 Bft) S 180 0 min 1,4 C 3,3 km/h (1 Bft)
31.03.2016 22:00 11,6 C 11,5 C 50 % 1007,0 hPa 0,0 mm 1,2 km/h (1 Bft) O-SO 112 0 min 1,5 C 4,8 km/h (1 Bft)
31.03.2016 22:05 13,0 C 12,8 C 47 % 1007,0 hPa 0,0 mm 4,8 km/h (1 Bft) S 180 0 min 2,0 C 0,0 km/h (0 Bft)
31.03.2016 22:10 13,2 C 13,0 C 46 % 1006,9 hPa 0,0 mm 4,8 km/h (1 Bft) NW 315 0 min 1,8 C 0,0 km/h (0 Bft)
31.03.2016 22:15 12,0 C 12,7 C 47 % 1006,9 hPa 0,0 mm 0,9 km/h (0 Bft) S 180 0 min 1,0 C 0,0 km/h (0 Bft)
31.03.2016 22:20 11,7 C 12,2 C 48 % 1006,9 hPa 0,0 mm 0,3 km/h (0 Bft) S 180 0 min 1,1 C 0,0 km/h (0 Bft)
31.03.2016 22:25 12,4 C 12,2 C 47 % 1006,9 hPa 0,0 mm 0,0 km/h (0 Bft) O-SO 112 0 min 1,4 C 0,0 km/h (0 Bft)
31.03.2016 22:30 13,3 C 12,9 C 47 % 1007,2 hPa 0,0 mm 0,0 km/h (0 Bft) O 90 0 min 2,2 C 0,0 km/h (0 Bft)
31.03.2016 22:35 13,1 C 12,8 C 47 % 1007,2 hPa 0,0 mm 0,0 km/h (0 Bft) SO 135 0 min 2,0 C 0,0 km/h (0 Bft)
31.03.2016 22:40 11,9 C 12,2 C 48 % 1007,2 hPa 0,0 mm 0,0 km/h (0 Bft) N-NW 337 0 min 1,2 C 0,0 km/h (0 Bft)
31.03.2016 22:45 11,5 C 11,7 C 49 % 1007,2 hPa 0,0 mm 1,2 km/h (1 Bft) O-SO 112 0 min 1,2 C 3,9 km/h (1 Bft)
31.03.2016 22:50 11,7 C 11,8 C 49 % 1007,3 hPa 0,0 mm 2,1 km/h (1 Bft) W-SW 247 0 min 1,3 C 0,0 km/h (0 Bft)
31.03.2016 22:55 12,3 C 12,3 C 49 % 1007,3 hPa 0,0 mm 1,8 km/h (1 Bft) O-SO 112 0 min 1,9 C 0,0 km/h (0 Bft)
31.03.2016 23:00 12,1 C 12,2 C 49 % 1007,3 hPa 0,0 mm 0,9 km/h (0 Bft) NW 315 0 min 1,7 C 3,9 km/h (1 Bft)
31.03.2016 23:05 12,3 C 12,3 C 49 % 1007,3 hPa 0,0 mm 1,8 km/h (1 Bft) O 90 0 min 1,9 C 4,8 km/h (1 Bft)
31.03.2016 23:10 12,3 C 12,5 C 49 % 1007,3 hPa 0,0 mm 2,1 km/h (1 Bft) N-NO 22 0 min 1,9 C 3,0 km/h (1 Bft)
31.03.2016 23:15 12,5 C 12,9 C 48 % 1007,3 hPa 0,0 mm 2,4 km/h (1 Bft) O-SO 112 0 min 1,8 C 0,0 km/h (0 Bft)
31.03.2016 23:20 12,6 C 12,9 C 48 % 1007,3 hPa 0,0 mm 2,7 km/h (1 Bft) SO 135 0 min 1,9 C 4,5 km/h (1 Bft)
31.03.2016 23:25 12,5 C 13,1 C 48 % 1007,3 hPa 0,0 mm 2,1 km/h (1 Bft) SO 135 0 min 1,8 C 0,0 km/h (0 Bft)
31.03.2016 23:30 12,6 C 12,9 C 49 % 1007,4 hPa 0,0 mm 2,1 km/h (1 Bft) S-SO 157 0 min 2,2 C 0,0 km/h (0 Bft)
31.03.2016 23:35 12,7 C 12,9 C 47 % 1007,4 hPa 0,0 mm 1,5 km/h (1 Bft) SO 135 0 min 1,7 C 3,0 km/h (1 Bft)
31.03.2016 23:40 12,9 C 13,0 C 47 % 1007,4 hPa 0,0 mm 1,5 km/h (1 Bft) N-NO 22 0 min 1,9 C 3,0 km/h (1 Bft)
31.03.2016 23:45 13,4 C 13,3 C 46 % 1007,4 hPa 0,0 mm 0,9 km/h (0 Bft) SO 135 0 min 2,0 C 3,0 km/h (1 Bft)
31.03.2016 23:50 13,8 C 13,7 C 46 % 1007,1 hPa 0,0 mm 1,8 km/h (1 Bft) O 90 0 min 2,4 C 0,0 km/h (0 Bft)
31.03.2016 23:53 14,1 C 14,1 C 45 % 1007,1 hPa 0,0 mm 2,7 km/h (1 Bft) NO 45 0 min 2,4 C 0,0 km/h (0 Bft)
31.03.2016 23:55 14,1 C 14,1 C 45 % 1007,1 hPa 0,0 mm 2,7 km/h (1 Bft) NO 45 0 min 2,4 C 0,0 km/h (0 Bft)
_ Min-Zeit 03:05 03:15 15:15 20:05 - 22:40 - - - 03:05 23:55
Minimum _ 2,8 C 2,6 C 25 % 1006,7 hPa - 0,0 km/h (0 Bft) - - - -0,1 C 0,0 km/h (0 Bft)
_ Max-Zeit 14:25 14:15 04:50 00:05 23:55 15:15 - - 15:30 09:10 18:55
Maximum _ 23,7 C 29,4 C 85 % 1012,7 hPa 0,0 mm 12,5 km/h
W-SW (3 Bft)
- - 5 min 6,9 C 29,5 km/h
O-NO (5 Bft)
Durchschnitt _ 13,0 C 14,7 C 54 % 1009,8 hPa #0,0 mm 2,8 km/h (1 Bft) W-SW - #6:19 h 2,5 C 3,9 km/h (1 Bft)